Wind_Speed
14 14 15 15 15 15 16 16 17 17 17 17 18 18 18 18 18 18 18 18 18 18 18 18 18 19 20 21 21 22 22 23 24 25 25 26 26 27 27 28 28 29 30
17 17 18 19 18 19 19 19 19 20 20 20 20 20 20 20 20 21 21 21 21 21 21 21 21 22 22 22 23 24 25 25 26 27 27 28 29 30 30 30 30 31 31
19 20 21 22 22 22 22 23 23 23 23 23 23 23 23 23 23 23 23 23 23 23 24 24 24 24 24 25 25 25 26 27 28 29 29 29 30 31 32 33 33 34 34
22 22 23 23 25 26 26 26 26 26 26 26 25 25 26 25 25 26 26 26 26 26 26 26 26 26 26 27 28 28 29 29 30 31 31 32 33 34 35 35 36 37 38
25 26 26 27 27 28 29 30 29 29 29 29 29 28 28 27 27 28 29 29 29 29 29 29 29 29 30 30 30 31 32 33 34 34 35 35 36 36 37 38 39 40 40
28 28 28 28 29 30 31 32 32 32 31 31 30 30 30 29 29 30 31 32 32 32 32 32 32 32 33 34 34 35 36 37 37 38 39 39 40 41 41 42 42 43 44
31 31 32 32 32 32 32 32 31 31 30 30 30 31 31 31 33 33 34 35 35 35 36 36 36 37 38 39 39 40 40 41 41 42 43 44 44 45 46 46 47 47 48
34 34 34 33 32 32 32 32 32 32 30 30 31 32 33 34 35 36 37 36 37 38 39 39 40 40 42 43 44 44 45 45 46 47 48 49 50 50 51 52 52 52 52
36 36 34 33 32 31 31 31 31 31 30 30 31 33 34 35 36 37 37 38 39 40 41 43 44 45 46 47 47 48 49 50 51 52 53 54 55 55 55 56 56 57 57
36 35 34 34 33 32 31 32 32 32 33 32 32 33 34 35 37 37 38 39 39 41 43 44 46 48 49 51 52 53 54 55 56 57 58 59 59 60 60 60 60 60 61
39 37 37 36 34 32 33 33 34 34 35 34 33 34 35 38 39 40 41 41 42 44 46 47 49 51 52 54 55 56 58 59 60 60 61 62 62 63 63 63 64 65 65
41 40 38 37 35 35 36 36 36 36 36 36 36 37 39 41 42 43 44 44 46 48 49 51 52 54 55 57 59 60 61 62 64 64 65 65 66 66 66 67 67 67 67
40 39 38 38 38 38 38 37 38 38 37 37 38 40 41 42 43 45 46 48 49 51 53 55 56 56 57 58 60 61 63 64 66 67 68 68 67 68 68 69 69 69 69
41 40 40 40 41 43 42 42 42 40 40 40 41 42 43 44 46 48 49 51 53 55 57 58 59 60 61 62 62 63 64 64 65 67 68 69 69 70 71 71 70 70 69
43 42 43 43 44 45 44 44 43 42 43 43 44 44 46 47 50 51 53 54 56 56 58 60 60 61 62 62 63 63 64 65 66 67 68 69 70 71 71 71 70 69 68
44 45 45 46 46 45 45 44 43 44 45 46 46 47 49 51 52 54 55 57 57 58 59 60 60 61 61 62 63 63 64 65 66 66 67 67 68 69 68 67 67 67 67
45 46 46 46 46 45 45 44 45 46 47 48 49 51 52 53 54 55 56 56 56 57 57 58 59 59 60 60 60 60 62 63 64 64 64 64 64 64 64 64 63 62 60
45 46 45 45 45 46 46 46 47 49 50 51 52 53 54 54 55 55 55 55 55 55 55 55 56 56 56 56 56 56 57 58 57 56 55 55 55 55 55 54 54 54 54
44 44 44 45 45 46 46 46 48 49 51 52 52 52 52 52 52 52 52 51 52 52 52 51 51 51 51 51 51 50 49 48 48 48 47 48 47 47 47 47 47 47 47
41 42 42 43 44 45 46 46 48 49 50 50 49 49 49 49 49 49 49 48 48 47 46 46 46 46 46 46 44 43 42 42 41 41 40 40 40 40 40 40 41 41 41
39 40 41 42 43 44 44 45 46 46 46 46 46 46 45 45 45 44 44 43 42 42 42 41 41 41 39 38 38 37 37 36 36 36 35 35 34 33 33 33 34 34 35
37 38 39 40 41 42 42 42 43 43 42 42 41 41 41 40 39 38 37 37 37 36 36 35 35 34 34 34 33 32 31 30 30 31 30 30 29 28 28 29 29 29 30
35 36 37 37 37 37 37 38 38 38 37 37 37 37 36 35 34 33 32 31 30 30 30 29 29 29 29 29 27 27 26 26 26 26 25 25 25 25 25 24 24 25 26
34 34 34 33 34 34 34 34 34 34 35 35 34 33 32 30 29 28 27 26 26 26 25 25 25 25 24 24 24 24 23 23 23 22 22 22 22 22 22 22 22 22 23
30 30 31 31 31 31 31 32 32 32 31 30 29 27 26 25 24 23 22 22 22 21 21 20 20 20 20 20 20 20 20 20 20 20 20 20 20 20 20 20 20 20 21
28 28 28 28 28 28 29 29 28 28 26 25 24 23 23 22 21 19 19 19 18 18 18 17 17 17 18 18 17 17 17 18 18 18 18 18 18 18 18 18 19 19 20
Wind_Direction
265 266 268 270 273 277 279 276 277 278 279 281 282 285 287 287 286 286 287 286 286 284 280 277 277 277 277 276 277 276 275 274 274 274 272 272 271 271 270 270 270 269 269
268 269 270 272 273 275 276 273 272 273 275 277 279 281 282 284 284 284 283 284 283 281 280 278 277 277 277 275 276 276 275 275 276 275 274 273 273 272 272 271 271 271 271
269 270 273 275 274 272 272 272 271 271 272 275 275 278 280 281 282 283 281 279 279 279 279 278 276 276 275 275 276 276 275 275 276 276 276 275 275 274 273 272 271 271 272
268 269 270 272 273 272 271 272 273 272 273 273 272 274 277 279 280 281 279 277 276 276 276 275 274 274 274 274 275 275 275 275 275 276 276 276 276 276 275 273 272 272 272
268 270 271 272 275 276 273 272 273 273 272 271 272 273 275 278 279 281 280 277 275 274 274 272 272 272 272 272 274 274 274 274 274 275 275 275 275 275 275 274 274 273 273
269 273 277 277 279 277 274 275 274 275 275 275 273 273 274 278 279 279 279 278 275 273 273 271 271 271 272 272 273 274 274 275 274 275 274 274 275 274 274 274 274 273 273
272 275 277 279 281 282 278 275 275 275 275 276 277 276 275 276 277 278 279 276 274 272 272 272 271 271 273 273 273 274 274 275 274 274 274 274 274 275 274 274 274 274 274
271 274 276 282 284 285 281 279 277 277 280 280 279 278 277 276 275 276 278 276 274 274 274 272 272 272 273 273 274 274 274 274 274 274 274 274 275 275 274 275 274 274 274
270 273 276 279 282 285 284 283 284 281 281 283 283 280 279 278 278 278 279 277 275 274 274 272 273 273 273 273 273 274 274 274 274 275 274 274 274 274 275 275 274 274 273
277 275 280 281 282 284 288 289 287 286 284 284 282 280 280 279 280 280 279 277 275 276 275 275 274 274 274 273 274 274 274 274 274 274 274 273 274 274 275 275 275 274 274
280 279 282 283 285 287 290 287 288 289 288 286 284 281 279 280 281 281 279 278 277 277 276 275 275 275 274 274 274 275 274 274 274 273 273 273 273 274 274 274 274 274 274
282 280 284 286 287 289 290 289 289 288 287 286 284 282 281 281 282 282 280 278 278 278 278 277 277 276 275 275 275 275 275 274 274 273 273 273 274 274 274 274 274 274 273
285 285 289 289 290 289 291 290 288 289 286 284 283 282 281 282 283 283 281 280 279 278 278 278 278 278 277 276 276 276 275 275 274 274 273 274 273 274 274 274 274 274 274
289 290 291 291 291 290 289 289 290 287 285 285 284 284 282 283 282 282 282 281 280 279 278 278 279 278 278 277 276 276 277 276 276 275 274 274 274 274 274 275 275 274 274
288 288 289 289 290 290 288 289 287 286 286 285 284 283 283 282 283 282 281 281 281 280 279 279 279 279 280 279 279 278 277 276 277 276 276 276 276 275 275 275 274 274 274
286 287 288 288 288 286 285 285 284 284 285 284 283 283 283 283 283 282 282 283 282 282 281 281 281 281 281 281 280 279 278 278 277 277 277 276 276 275 274 274 274 274 274
283 283 284 284 283 283 283 283 284 285 285 285 284 285 284 284 283 283 284 284 284 283 282 282 282 281 281 281 281 281 280 280 279 279 278 277 276 276 275 275 275 274 274
279 280 281 281 282 284 284 284 286 286 287 286 286 286 286 286 285 285 285 285 285 285 284 283 283 283 283 283 283 283 283 282 282 281 281 280 279 278 277 275 275 275 275
279 280 281 282 284 285 285 286 286 287 288 288 288 288 288 288 288 287 287 287 287 287 286 285 285 285 285 285 285 284 284 283 283 283 282 281 280 280 279 277 276 276 275
279 280 283 285 286 287 287 288 289 290 291 291 291 292 291 291 290 289 289 288 288 288 287 287 286 286 286 286 286 286 286 287 286 285 285 284 284 282 280 279 278 278 277
281 284 286 287 287 289 290 291 293 294 294 294 295 295 295 294 293 292 291 290 290 289 288 287 287 288 288 289 289 290 290 290 289 288 288 288 287 286 284 281 280 280 279
287 288 290 290 291 292 293 295 296 297 298 299 300 300 299 298 297 296 294 293 293 293 292 291 291 291 292 292 292 293 293 293 293 292 291 291 291 289 287 286 285 283 281
288 291 292 293 293 295 295 297 298 299 301 302 303 303 303 302 301 299 298 298 297 297 296 296 295 296 296 296 297 298 298 297 297 297 295 294 292 291 290 289 289 288 287
291 292 293 295 297 298 300 302 303 305 305 306 306 305 305 305 304 304 303 302 302 302 302 301 300 300 300 301 302 302 303 303 303 303 301 300 298 296 295 295 294 293 293
294 295 297 299 301 303 304 306 308 309 309 310 310 310 310 310 311 311 310 310 310 309 308 307 306 307 307 307 307 307 308 308 309 309 308 306 304 303 302 302 301 299 299
296 298 299 302 304 305 307 309 310 312 312 313 314 315 315 316 318 319 319 319 318 318 318 318 316 315 315 316 317 318 318 317 317 316 314 313 312 311 311 310 310 310 309
Height
5889 5889 5889 5889 5888 5888 5887 5886 5886 5885 5884 5883 5882 5881 5880 5878 5877 5876 5875 5874 5873 5872 5871 5870 5869 5869 5869 5868 5868 5867 5867 5866 5865 5865 5865 5864 5864 5864 5864 5864 5864 5864 5864
5886 5886 5886 5885 5885 5884 5884 5883 5882 5881 5880 5879 5878 5877 5875 5874 5873 5872 5871 5870 5869 5868 5867 5866 5865 5864 5864 5863 5863 5862 5861 5861 5860 5860 5859 5858 5858 5858 5857 5857 5857 5857 5857
5883 5882 5882 5881 5881 5880 5879 5879 5878 5877 5876 5875 5873 5872 5871 5870 5869 5867 5866 5865 5864 5863 5862 5861 5860 5859 5858 5858 5857 5856 5856 5855 5854 5853 5852 5852 5851 5850 5850 5850 5849 5849 5849
5879 5878 5877 5876 5875 5874 5874 5873 5872 5871 5870 5869 5868 5867 5866 5864 5863 5862 5861 5859 5859 5858 5857 5855 5854 5853 5852 5852 5851 5850 5849 5848 5847 5846 5845 5844 5844 5843 5842 5841 5841 5841 5841
5874 5873 5872 5871 5870 5869 5868 5867 5866 5865 5863 5862 5861 5860 5860 5858 5857 5856 5855 5853 5852 5851 5850 5849 5848 5847 5846 5845 5844 5843 5842 5841 5840 5838 5837 5836 5835 5834 5833 5833 5832 5832 5831
5868 5868 5866 5865 5863 5862 5861 5860 5859 5858 5856 5855 5854 5853 5853 5852 5851 5849 5848 5847 5846 5845 5843 5842 5841 5840 5838 5837 5836 5835 5833 5832 5831 5830 5828 5827 5826 5825 5824 5822 5822 5821 5820
5862 5861 5860 5858 5856 5855 5853 5852 5851 5850 5849 5848 5847 5846 5845 5844 5843 5842 5840 5839 5838 5837 5835 5834 5833 5831 5830 5829 5827 5825 5824 5823 5821 5820 5818 5817 5815 5814 5813 5811 5810 5809 5808
5855 5854 5853 5851 5849 5848 5846 5845 5843 5842 5841 5840 5839 5838 5837 5836 5835 5833 5832 5830 5829 5828 5827 5825 5824 5822 5820 5819 5817 5815 5813 5812 5810 5809 5807 5805 5803 5801 5800 5798 5797 5796 5795
5848 5847 5845 5843 5842 5840 5839 5837 5836 5835 5834 5833 5831 5830 5829 5827 5826 5825 5823 5821 5820 5819 5817 5815 5813 5812 5810 5808 5806 5804 5802 5800 5798 5796 5794 5792 5789 5787 5786 5785 5783 5781 5780
5840 5838 5837 5835 5833 5832 5831 5830 5829 5827 5826 5825 5823 5821 5820 5818 5816 5815 5813 5811 5809 5808 5806 5804 5802 5800 5798 5795 5793 5791 5789 5787 5784 5782 5779 5777 5774 5772 5771 5769 5767 5765 5764
5832 5830 5829 5827 5826 5824 5823 5822 5820 5819 5817 5816 5814 5813 5811 5809 5806 5805 5802 5801 5798 5796 5794 5792 5789 5787 5784 5782 5779 5776 5774 5771 5768 5765 5763 5760 5758 5756 5754 5752 5750 5748 5747
5823 5821 5820 5818 5817 5816 5815 5813 5812 5810 5809 5807 5805 5803 5801 5799 5796 5793 5791 5788 5786 5784 5781 5778 5775 5772 5769 5766 5763 5761 5757 5754 5751 5748 5745 5743 5741 5739 5737 5734 5732 5731 5729
5814 5813 5811 5810 5808 5807 5806 5804 5803 5801 5799 5797 5795 5792 5790 5787 5784 5782 5778 5775 5772 5769 5766 5763 5759 5756 5753 5750 5747 5744 5739 5736 5733 5729 5727 5724 5722 5720 5718 5716 5714 5712 5710
5806 5805 5804 5802 5800 5798 5796 5794 5792 5790 5788 5786 5783 5781 5778 5775 5772 5769 5765 5762 5758 5754 5750 5747 5743 5739 5736 5732 5729 5725 5721 5718 5714 5710 5707 5705 5703 5700 5698 5696 5694 5692 5690
5797 5795 5794 5792 5791 5788 5785 5783 5781 5779 5777 5774 5771 5768 5765 5762 5758 5754 5750 5746 5743 5738 5734 5729 5726 5722 5718 5714 5710 5707 5702 5699 5695 5691 5688 5685 5683 5680 5678 5675 5673 5672 5670
5787 5786 5784 5782 5779 5777 5774 5772 5770 5767 5764 5761 5758 5755 5751 5747 5743 5739 5735 5730 5726 5721 5716 5711 5708 5704 5700 5695 5691 5688 5684 5680 5676 5673 5669 5666 5663 5660 5658 5655 5653 5652 5650
5778 5775 5773 5771 5768 5766 5763 5761 5758 5755 5752 5748 5745 5741 5736 5732 5727 5723 5718 5713 5708 5704 5700 5695 5691 5686 5683 5678 5674 5669 5665 5662 5658 5655 5651 5647 5644 5641 5639 5636 5635 5633 5631
5767 5765 5762 5759 5757 5754 5752 5749 5745 5742 5738 5735 5730 5725 5721 5716 5711 5706 5701 5696 5692 5687 5683 5679 5674 5670 5666 5662 5658 5653 5649 5645 5640 5636 5633 5630 5627 5623 5621 5619 5617 5616 5614
5756 5754 5751 5748 5745 5743 5740 5736 5733 5729 5725 5720 5715 5710 5705 5700 5695 5690 5685 5681 5676 5672 5668 5664 5659 5655 5651 5647 5643 5638 5634 5630 5625 5621 5619 5615 5612 5609 5606 5604 5603 5601 5600
5745 5743 5740 5737 5734 5731 5727 5724 5720 5715 5710 5705 5700 5695 5690 5685 5680 5676 5671 5667 5662 5658 5654 5650 5646 5641 5637 5633 5629 5625 5621 5617 5613 5609 5606 5603 5601 5597 5595 5593 5591 5590 5588
5734 5732 5729 5726 5723 5719 5715 5711 5707 5702 5697 5692 5687 5682 5676 5671 5666 5662 5658 5653 5649 5645 5641 5637 5633 5629 5626 5622 5618 5614 5611 5607 5603 5600 5596 5593 5590 5588 5585 5583 5581 5579 5578
5725 5722 5718 5715 5712 5708 5704 5700 5695 5691 5685 5680 5675 5669 5664 5659 5655 5650 5646 5642 5638 5634 5630 5626 5623 5619 5616 5612 5609 5605 5601 5598 5595 5592 5588 5585 5582 5579 5577 5575 5573 5571 5569
5715 5712 5709 5705 5702 5698 5693 5689 5684 5680 5675 5670 5665 5659 5654 5649 5645 5641 5636 5632 5629 5625 5621 5618 5615 5611 5608 5604 5601 5597 5594 5591 5588 5584 5581 5578 5575 5572 5570 5568 5565 5563 5561
5706 5703 5699 5696 5692 5688 5684 5679 5675 5670 5665 5660 5656 5650 5645 5641 5636 5632 5628 5625 5621 5618 5614 5611 5608 5605 5602 5598 5595 5592 5588 5585 5582 5579 5576 5573 5570 5567 5564 5562 5559 5557 5554
5697 5694 5691 5687 5683 5679 5675 5671 5666 5662 5657 5653 5648 5643 5639 5635 5630 5626 5623 5619 5615 5612 5609 5606 5603 5600 5596 5593 5590 5587 5583 5580 5577 5574 5571 5568 5565 5562 5559 5556 5554 5551 5548
5690 5687 5683 5680 5676 5672 5668 5664 5660 5656 5651 5647 5643 5638 5634 5630 5626 5622 5618 5615 5611 5608 5605 5602 5599 5596 5592 5589 5586 5583 5580 5577 5574 5571 5567 5564 5561 5558 5555 5552 5549 5546 5543